This is the latest recevied weather packets stored in our database for station/object KB9HUO. If no packets are shown the sender has not sent any weather packets the latest 10 day(s).
| Time | Temp. | Humidity | Pressure | Rain* | Wind** | Luminosity | Snow |
|---|---|---|---|---|---|---|---|
| 1788469736 | 34.44° C | 52% | 1015.8 hPa | 0 mm | - | 43 W/m² | - |
| 1788469431 | 35° C | 51% | 1015.8 hPa | 0 mm | - | 42 W/m² | - |
| 1788469130 | 35° C | 51% | 1015.8 hPa | 0 mm | - | 43 W/m² | - |
| 1788468830 | 35° C | 51% | 1015.9 hPa | 0 mm | - | 52 W/m² | - |
| 1788468525 | 35° C | 50% | 1015.9 hPa | 0 mm | - | 53 W/m² | - |
| 1788468221 | 35° C | 53% | 1016 hPa | 0 mm | - | 68 W/m² | - |
| 1788467916 | 35° C | 50% | 1016 hPa | 0 mm | - | 57 W/m² | - |
| 1788467612 | 35° C | 51% | 1016.2 hPa | 0 mm | - | 61 W/m² | - |
| 1788467311 | 35° C | 51% | 1016.2 hPa | 0 mm | - | 91 W/m² | - |
| 1788467008 | 35° C | 53% | 1016.2 hPa | 0 mm | - | 336 W/m² | - |
| 1788466707 | 35° C | 52% | 1016.1 hPa | 0 mm | - | 118 W/m² | - |
| 1788466402 | 35° C | 51% | 1016.3 hPa | 0 mm | - | 61 W/m² | - |
| 1788466100 | 35° C | 51% | 1016.4 hPa | 0 mm | - | 61 W/m² | - |
| 1788465796 | 35° C | 53% | 1016.3 hPa | 0 mm | - | 62 W/m² | - |
| 1788465492 | 35° C | 52% | 1016.3 hPa | 0 mm | - | 63 W/m² | - |
| 1788465188 | 35° C | 52% | 1016.5 hPa | 0 mm | - | 66 W/m² | - |
| 1788464882 | 35° C | 53% | 1016.5 hPa | 0 mm | - | 69 W/m² | - |
| 1788464274 | 35° C | 51% | 1016.5 hPa | 0 mm | - | 92 W/m² | - |
| 1788463989 | 35° C | 51% | 1016.7 hPa | 0 mm | - | 196 W/m² | - |
| 1788463665 | 35° C | 51% | 1016.6 hPa | 0 mm | - | 110 W/m² | - |
| 1788463360 | 35° C | 52% | 1016.7 hPa | 0 mm | - | 83 W/m² | - |
| 1788463057 | 35.56° C | 51% | 1016.9 hPa | 0 mm | - | 242 W/m² | - |
| 1788462752 | 35.56° C | 51% | 1017 hPa | 0 mm | - | 92 W/m² | - |
| 1788462475 | 35.56° C | 51% | 1016.9 hPa | 0 mm | - | 164 W/m² | - |
| 1788462146 | 35.56° C | 51% | 1016.9 hPa | 0 mm | - | 127 W/m² | - |
* Rain latest hour (hover to see other rain measurements)
** Current wind speed in m/s (hover to see current wind gust speed)